Date String (YYYY-MM-DD hh:mm:ss) UTC,Instrument flags,Ambient pressure (hPa),Sample flow (lpm),Bypass flow (lpm),Sample temperature (°C),Ambient temperature (°C),ASC tube jacket temperature (°C),LED temperature (°C),Box temperature (°C),Sample RH (%),Span deviation,Mass concentration (μg/m³),Mass concentration (μg/m³),Mass concentration (μg/m³)
DateTimeUTC,F1_M11,P_M11,Q1_M11,Q2_M11,T1_M11,T2_M11,T3_M11,T4_M11,T5_M11,U1_M11,ZSPAN_M11,X0_M11,X2_M11,X1_M11
2023-01-06 16:00:00,,0821.8,5.00,0.00,22.2,20.8,00.0,31.1,23.9,09.6,0000.0,0005.87,0001.88,0001.37
2023-01-06 16:01:00,,0822.1,5.00,0.00,22.2,21.1,00.0,31.1,23.9,09.6,0000.0,0004.98,0001.79,0001.33
2023-01-06 16:02:00,,0821.9,4.99,0.00,22.3,22.3,00.0,31.0,24.2,09.6,0000.0,0004.97,0001.76,0001.29
2023-01-06 16:03:00,,0822.0,5.00,0.00,22.4,23.0,00.0,31.1,24.5,09.5,0000.0,0004.57,0001.71,0001.25
2023-01-06 16:04:00,,0822.1,4.99,0.00,22.5,22.7,00.0,31.1,24.5,09.5,0000.0,0005.57,0001.64,0001.22
2023-01-06 16:05:00,,0822.1,4.99,0.00,22.5,22.4,00.0,31.2,24.4,09.5,0000.0,0004.89,0001.61,0001.20
2023-01-06 16:06:00,,0822.1,5.00,0.00,22.5,22.1,00.0,31.2,24.4,09.5,0000.0,0004.66,0001.65,0001.21
2023-01-06 16:07:00,,0822.1,5.00,0.00,22.5,21.9,00.0,31.2,24.3,09.5,0000.0,0004.88,0001.65,0001.20
2023-01-06 16:08:00,,0822.1,5.00,0.00,22.5,21.7,00.0,31.3,24.3,09.6,0000.0,0004.83,0001.65,0001.20
2023-01-06 16:09:00,,0822.2,4.99,0.00,22.5,21.6,00.0,31.3,24.3,09.6,0000.0,0004.89,0001.68,0001.21
2023-01-06 16:10:00,,0822.2,5.01,0.00,22.5,21.5,00.0,31.3,24.3,09.7,0000.0,0004.82,0001.66,0001.21
2023-01-06 16:11:00,,0822.2,5.00,0.00,22.5,21.5,00.0,31.3,24.3,09.6,0000.0,0004.86,0001.67,0001.22
2023-01-06 16:12:00,,0822.2,5.00,0.00,22.5,21.5,00.0,31.3,24.3,09.5,0000.0,0005.17,0001.75,0001.24
2023-01-06 16:13:00,,0822.2,5.00,0.00,22.5,21.5,00.0,31.3,24.3,09.5,0000.0,0006.69,0001.74,0001.24
2023-01-06 16:14:00,,0822.2,5.00,0.00,22.6,21.5,00.0,31.3,24.3,09.6,0000.0,0007.20,0001.80,0001.24
2023-01-06 16:15:00,,0822.1,5.00,0.00,22.6,21.5,00.0,31.3,24.3,09.6,0000.0,0006.05,0001.83,0001.23
2023-01-06 16:16:00,,0822.1,5.00,0.00,22.6,21.5,00.0,31.3,24.3,09.6,0000.0,0006.49,0001.86,0001.22
2023-01-06 16:17:00,,0822.1,5.00,0.00,22.6,21.5,00.0,31.3,24.4,09.7,0000.0,0006.58,0001.82,0001.20
2023-01-06 16:18:00,,0822.0,4.99,0.00,22.6,21.5,00.0,31.3,24.4,09.6,0000.0,0006.52,0001.84,0001.20
2023-01-06 16:19:00,,0821.9,5.02,0.00,22.6,21.5,00.0,31.3,24.4,09.6,0000.0,0006.52,0001.84,0001.20
2023-01-06 16:20:00,,0821.9,5.00,0.00,22.6,21.5,00.0,31.3,24.4,09.5,0000.0,0006.50,0001.82,0001.20
2023-01-06 16:21:00,,0821.9,5.00,0.00,22.6,21.6,00.0,31.4,24.4,09.5,0000.0,0006.36,0001.77,0001.20
2023-01-06 16:22:00,,0822.0,4.99,0.00,22.6,21.6,00.0,31.4,24.4,09.5,0000.0,0006.32,0001.74,0001.19
2023-01-06 16:23:00,,0822.1,5.00,0.00,22.6,21.6,00.0,31.4,24.4,09.6,0000.0,0006.50,0001.75,0001.19
2023-01-06 16:24:00,,0822.1,5.00,0.00,22.6,21.6,00.0,31.4,24.5,09.6,0000.0,0006.81,0001.74,0001.19
2023-01-06 16:25:00,,0822.1,5.00,0.00,22.7,21.6,00.0,31.4,24.5,09.7,0000.0,0005.77,0001.72,0001.20
2023-01-06 16:26:00,,0822.2,5.00,0.00,22.7,21.6,00.0,31.4,24.5,09.7,0000.0,0004.42,0001.67,0001.20
2023-01-06 16:27:00,,0822.2,5.00,0.00,22.7,21.6,00.0,31.4,24.5,09.9,0000.0,0004.19,0001.64,0001.21
2023-01-06 16:28:00,,0822.2,5.00,0.00,22.7,21.6,00.0,31.4,24.5,10.8,0000.0,0004.77,0001.68,0001.22
2023-01-06 16:29:00,,0822.2,4.99,0.00,22.7,21.6,00.0,31.4,24.5,10.6,0000.0,0004.74,0001.73,0001.25
2023-01-06 16:30:00,,0822.2,5.00,0.00,22.7,21.6,00.0,31.4,24.5,10.2,0000.0,0004.73,0001.75,0001.26
2023-01-06 16:31:00,,0822.2,5.00,0.00,22.7,21.6,00.0,31.4,24.4,10.0,0000.0,0004.63,0001.73,0001.27
2023-01-06 16:32:00,,0822.2,5.00,0.00,22.7,21.5,00.0,31.4,24.4,09.8,0000.0,0004.76,0001.79,0001.28
2023-01-06 16:33:00,,0822.2,5.00,0.00,22.7,21.5,00.0,31.5,24.4,09.8,0000.0,0004.89,0001.80,0001.28
2023-01-06 16:34:00,,0822.2,5.00,0.00,22.7,21.5,00.0,31.5,24.4,09.7,0000.0,0004.81,0001.80,0001.29
2023-01-06 16:35:00,,0822.2,4.99,0.00,22.7,21.5,00.0,31.5,24.5,09.7,0000.0,0004.36,0001.77,0001.29
2023-01-06 16:36:00,,0822.3,5.00,0.00,22.7,21.5,00.0,31.5,24.5,09.7,0000.0,0004.24,0001.78,0001.31
2023-01-06 16:37:00,,0822.3,5.00,0.00,22.7,21.5,00.0,31.5,24.5,09.7,0000.0,0004.23,0001.78,0001.32
2023-01-06 16:38:00,,0822.3,5.01,0.00,22.7,21.5,00.0,31.5,24.5,09.7,0000.0,0004.28,0001.77,0001.35
2023-01-06 16:39:00,,0822.4,5.00,0.00,22.7,21.5,00.0,31.5,24.4,09.6,0000.0,0004.68,0001.77,0001.36
2023-01-06 16:40:00,,0822.3,5.01,0.00,22.7,21.5,00.0,31.5,24.4,09.6,0000.0,0004.62,0001.76,0001.37
2023-01-06 16:41:00,,0822.3,5.00,0.00,22.7,21.5,00.0,31.5,24.5,09.6,0000.0,0004.59,0001.73,0001.38
2023-01-06 16:42:00,,0822.3,4.99,0.00,22.7,21.5,00.0,31.5,24.5,09.8,0000.0,0004.76,0001.80,0001.39
2023-01-06 16:43:00,,0822.3,5.00,0.00,22.7,21.5,00.0,31.5,24.5,10.1,0000.0,0004.89,0001.84,0001.39
2023-01-06 16:44:00,,0822.3,5.01,0.00,22.7,21.5,00.0,31.5,24.5,10.0,0000.0,0005.22,0001.93,0001.41
2023-01-06 16:45:00,,0822.3,5.00,0.00,22.7,21.5,00.0,31.5,24.5,10.0,0000.0,0005.52,0001.98,0001.43
2023-01-06 16:46:00,,0822.3,5.01,0.00,22.7,21.4,00.0,31.5,24.4,09.9,0000.0,0005.59,0002.03,0001.43
2023-01-06 16:47:00,,0822.3,5.01,0.00,22.7,21.4,00.0,31.5,24.5,09.9,0000.0,0006.22,0002.08,0001.44
2023-01-06 16:48:00,,0822.3,5.01,0.00,22.7,21.4,00.0,31.5,24.5,10.0,0000.0,0006.59,0002.10,0001.44
2023-01-06 16:49:00,,0822.3,5.00,0.00,22.7,21.4,00.0,31.5,24.5,09.9,0000.0,0007.03,0002.12,0001.44
2023-01-06 16:50:00,,0822.3,4.99,0.00,22.7,21.4,00.0,31.5,24.5,09.8,0000.0,0006.33,0002.10,0001.43
2023-01-06 16:51:00,,0822.3,5.00,0.00,22.7,21.4,00.0,31.5,24.4,09.8,0000.0,0006.56,0002.09,0001.42
2023-01-06 16:52:00,,0822.3,5.00,0.00,22.7,21.4,00.0,31.5,24.4,09.8,0000.0,0006.64,0002.11,0001.42
2023-01-06 16:53:00,,0822.4,5.00,0.00,22.7,21.3,00.0,31.5,24.4,09.8,0000.0,0006.62,0002.09,0001.41
2023-01-06 16:54:00,,0822.4,5.00,0.00,22.7,21.3,00.0,31.5,24.3,09.7,0000.0,0006.44,0002.01,0001.40
2023-01-06 16:55:00,,0822.3,5.01,0.00,22.7,21.3,00.0,31.5,24.4,09.7,0000.0,0006.05,0001.92,0001.38
2023-01-06 16:56:00,,0822.4,5.01,0.00,22.7,21.3,00.0,31.5,24.4,09.7,0000.0,0005.87,0001.91,0001.35
2023-01-06 16:57:00,,0822.3,5.01,0.00,22.7,21.3,00.0,31.5,24.5,09.7,0000.0,0006.08,0001.92,0001.34
2023-01-06 16:58:00,,0822.3,5.00,0.00,22.7,21.4,00.0,31.5,24.5,09.7,0000.0,0006.05,0001.91,0001.32
2023-01-06 16:59:00,,0822.4,5.01,0.00,22.7,21.4,00.0,31.5,24.5,09.7,0000.0,0006.12,0001.90,0001.31
